Probability
0 0 0 0 0 0 0 0 0 0 3 3 3 3 3 3 0 0 0 0 0 0 0 0 0 0 0 0 0 0 0 0 0 0 0 0 0 0 0 0 0 0 0
0 0 0 0 0 0 0 0 0 0 0 0 3 3 3 0 0 0 0 0 0 0 0 0 0 0 0 0 0 0 0 0 0 0 0 0 0 0 0 0 0 0 0
0 0 0 0 0 0 0 0 0 0 0 0 0 0 0 0 0 0 0 0 0 0 0 0 0 0 0 0 0 0 0 0 0 0 0 0 0 0 0 0 0 0 0
0 0 0 0 0 0 0 0 0 0 0 0 0 0 0 0 0 0 0 0 0 0 0 0 0 0 0 0 0 0 0 0 0 0 0 0 0 0 0 0 0 0 0
0 0 0 0 0 0 0 0 0 0 0 0 0 0 0 0 0 0 0 0 0 0 0 0 0 0 0 0 0 0 0 0 0 0 0 0 0 0 0 0 0 0 0
0 0 0 0 0 0 0 0 0 0 0 0 0 0 0 0 0 0 0 0 0 0 0 0 0 0 0 0 0 0 0 0 0 0 0 0 0 0 0 0 0 0 0
0 0 0 0 0 0 0 0 0 0 0 0 0 0 0 0 0 0 0 0 0 0 0 0 0 0 0 0 0 0 0 0 0 0 0 0 0 0 0 0 0 0 0
0 0 0 0 0 0 0 0 0 0 0 0 0 0 0 0 0 0 0 0 0 0 0 0 0 0 0 0 0 0 0 0 0 0 0 0 0 0 0 0 0 0 0
0 0 0 0 0 0 0 0 0 0 0 0 0 0 0 0 0 0 0 0 0 0 0 0 0 0 0 0 0 0 0 0 0 0 0 0 0 0 0 0 0 0 0
0 0 0 0 0 0 0 0 0 0 0 0 0 0 0 0 0 0 0 0 0 0 0 0 0 0 0 0 0 0 0 0 0 0 0 0 0 0 0 0 0 0 0
0 0 0 0 0 0 0 0 0 0 0 0 0 0 0 0 0 0 0 0 0 0 0 0 0 0 0 0 0 0 0 0 0 0 0 0 0 0 0 0 0 0 0
0 0 0 0 0 0 0 0 0 0 0 0 0 0 0 0 0 0 0 0 0 0 0 0 0 0 0 0 0 0 0 0 0 0 0 0 0 0 0 0 0 0 0
0 0 0 0 0 0 0 0 0 0 0 0 0 0 0 0 0 0 0 0 0 0 0 0 0 0 0 0 0 0 0 0 0 0 0 0 0 0 0 0 0 0 0
0 0 0 0 0 0 0 0 0 0 0 0 0 0 0 0 0 0 0 0 0 0 0 0 0 0 0 0 0 0 0 0 0 0 0 0 0 0 0 0 0 0 0
0 0 0 0 0 0 0 0 0 0 0 0 0 0 0 0 0 0 0 0 0 0 0 0 0 0 0 0 0 0 0 0 0 0 0 0 0 0 0 0 0 0 0
0 0 0 0 0 0 0 0 0 0 0 0 0 0 0 0 0 0 0 0 0 0 0 0 0 0 0 0 0 0 0 0 0 0 0 0 0 0 0 0 0 0 0
0 0 0 0 0 0 0 0 0 0 0 0 0 0 0 0 0 0 0 0 0 0 0 0 0 0 0 0 0 0 0 0 0 0 0 0 0 0 0 0 0 0 0
0 0 0 0 0 0 0 0 0 0 0 0 0 0 0 0 0 0 0 0 0 0 0 0 0 0 0 0 0 0 0 0 0 0 0 0 0 0 0 0 0 0 0
0 0 0 0 0 0 0 0 0 0 0 0 0 0 0 0 0 0 0 0 0 0 0 0 0 0 0 0 0 0 0 0 0 0 0 0 0 0 0 0 0 0 0
0 0 0 0 0 0 0 0 0 0 0 0 0 0 0 0 0 0 0 0 0 0 0 0 0 0 0 0 0 0 0 0 0 0 0 0 0 0 0 0 0 0 0
0 0 0 0 0 0 0 0 0 0 0 0 0 0 0 0 0 0 0 0 0 0 0 0 0 0 0 0 0 0 0 0 0 0 0 0 0 0 0 0 0 0 0
0 0 0 0 0 0 0 0 0 0 0 0 0 0 0 0 0 0 0 0 0 0 0 0 0 0 0 0 0 0 0 0 0 0 0 0 0 0 0 0 0 0 0
0 0 0 0 0 0 0 0 0 0 0 0 0 0 0 0 0 0 0 0 0 0 0 0 0 0 0 0 0 0 0 0 0 0 0 0 0 0 0 0 0 0 0
0 0 0 0 0 0 0 0 0 0 0 0 0 0 0 0 0 0 0 0 0 0 0 0 0 0 0 0 0 0 0 0 0 0 0 0 0 0 0 0 0 0 0
0 0 0 0 0 0 0 0 0 0 0 0 0 0 0 0 0 0 0 0 0 0 0 0 0 0 0 0 0 0 0 0 0 0 0 0 0 0 0 0 0 0 0
0 0 0 0 0 0 0 0 0 0 0 0 0 0 0 0 0 0 0 0 0 0 0 0 0 0 0 0 0 0 0 0 0 0 0 0 0 0 0 0 0 0 0
Height
5619 5619 5619 5618 5617 5617 5616 5614 5613 5611 5609 5607 5605 5603 5602 5600 5598 5596 5594 5593 5591 5590 5588 5585 5584 5582 5579 5578 5577 5576 5576 5576 5577 5580 5581 5580 5579 5579 5580 5579 5579 5579 5580
5607 5607 5607 5606 5605 5604 5602 5601 5599 5597 5595 5593 5591 5589 5588 5586 5585 5582 5581 5579 5577 5576 5574 5572 5570 5568 5566 5565 5564 5564 5564 5565 5565 5566 5568 5568 5568 5567 5567 5566 5566 5566 5567
5596 5595 5594 5593 5592 5591 5590 5588 5586 5584 5582 5579 5577 5575 5573 5572 5571 5569 5567 5566 5564 5563 5562 5560 5558 5555 5554 5553 5552 5552 5552 5553 5553 5554 5556 5557 5556 5555 5555 5555 5555 5555 5555
5584 5583 5582 5581 5580 5579 5577 5575 5573 5571 5569 5566 5564 5562 5560 5559 5558 5557 5555 5554 5553 5552 5550 5549 5547 5545 5543 5542 5541 5541 5541 5542 5542 5543 5544 5545 5545 5545 5545 5545 5545 5545 5546
5572 5571 5571 5569 5568 5566 5565 5563 5561 5558 5556 5554 5551 5550 5548 5547 5546 5545 5544 5543 5542 5541 5540 5538 5537 5535 5533 5532 5531 5531 5530 5531 5532 5532 5534 5535 5536 5536 5536 5536 5536 5537 5537
5561 5560 5559 5558 5557 5555 5553 5551 5549 5547 5545 5543 5540 5539 5537 5537 5535 5534 5532 5532 5531 5530 5529 5528 5527 5525 5524 5523 5522 5521 5521 5521 5522 5523 5525 5526 5527 5528 5528 5528 5528 5529 5530
5550 5549 5548 5547 5545 5544 5542 5540 5538 5536 5534 5532 5530 5528 5527 5527 5525 5524 5522 5522 5521 5520 5519 5518 5517 5516 5514 5514 5513 5513 5513 5513 5514 5515 5516 5517 5518 5519 5519 5520 5520 5521 5521
5539 5539 5537 5536 5535 5533 5531 5529 5527 5526 5524 5522 5521 5519 5518 5517 5515 5514 5513 5512 5511 5510 5509 5508 5507 5506 5505 5504 5504 5504 5505 5506 5506 5507 5508 5509 5510 5511 5511 5512 5512 5513 5513
5529 5528 5527 5526 5524 5523 5521 5519 5518 5517 5515 5513 5511 5510 5509 5508 5506 5505 5503 5502 5502 5501 5500 5499 5498 5497 5496 5495 5495 5496 5497 5498 5499 5499 5500 5501 5502 5503 5503 5504 5505 5505 5505
5519 5518 5516 5515 5514 5513 5511 5510 5508 5507 5506 5504 5503 5501 5500 5499 5497 5496 5495 5493 5493 5493 5492 5491 5490 5489 5488 5488 5488 5489 5490 5491 5491 5492 5493 5494 5495 5495 5496 5497 5497 5498 5498
5509 5508 5507 5506 5504 5503 5502 5501 5499 5498 5497 5495 5494 5493 5491 5490 5489 5488 5487 5486 5485 5485 5484 5484 5483 5482 5481 5481 5481 5482 5483 5483 5484 5485 5486 5487 5487 5488 5489 5490 5491 5491 5492
5500 5499 5498 5496 5495 5494 5493 5491 5490 5489 5488 5487 5486 5484 5483 5482 5481 5480 5479 5478 5478 5477 5477 5477 5476 5475 5475 5475 5475 5475 5476 5476 5477 5478 5479 5480 5481 5482 5482 5484 5485 5485 5485
5491 5489 5488 5487 5486 5484 5483 5482 5481 5480 5479 5478 5477 5477 5476 5475 5474 5472 5471 5471 5470 5470 5470 5469 5469 5468 5468 5468 5468 5468 5469 5469 5470 5471 5473 5474 5474 5475 5476 5477 5478 5479 5479
5481 5480 5479 5478 5477 5476 5475 5474 5473 5472 5471 5470 5470 5469 5468 5467 5466 5465 5464 5463 5463 5463 5463 5463 5462 5462 5462 5462 5462 5462 5463 5463 5464 5465 5466 5467 5468 5469 5470 5471 5472 5473 5473
5472 5471 5470 5469 5469 5468 5467 5466 5465 5465 5463 5463 5462 5461 5461 5460 5459 5458 5457 5457 5457 5456 5456 5456 5456 5455 5455 5456 5456 5456 5457 5457 5459 5460 5461 5462 5462 5463 5464 5465 5466 5467 5467
5463 5462 5462 5461 5460 5460 5459 5458 5457 5457 5456 5455 5455 5454 5453 5453 5451 5451 5450 5450 5450 5450 5450 5450 5449 5449 5449 5450 5450 5451 5452 5453 5454 5455 5456 5457 5458 5458 5459 5460 5461 5461 5462
5454 5454 5453 5453 5452 5451 5451 5451 5450 5450 5449 5448 5447 5446 5446 5445 5444 5444 5444 5444 5444 5444 5444 5443 5443 5443 5444 5444 5445 5446 5447 5448 5450 5451 5452 5453 5453 5454 5454 5455 5456 5456 5456
5446 5446 5445 5445 5444 5443 5443 5442 5442 5442 5441 5440 5440 5439 5438 5438 5438 5437 5437 5438 5438 5438 5438 5438 5438 5438 5439 5440 5441 5442 5443 5444 5445 5446 5447 5448 5449 5450 5450 5451 5452 5452 5452
5438 5438 5438 5437 5437 5436 5435 5435 5434 5434 5434 5433 5432 5432 5431 5431 5431 5431 5431 5431 5432 5432 5432 5433 5433 5434 5435 5436 5437 5438 5439 5440 5442 5443 5443 5444 5445 5446 5447 5448 5448 5448 5449
5432 5431 5431 5431 5430 5429 5428 5428 5427 5427 5426 5426 5425 5425 5424 5424 5424 5424 5425 5425 5426 5427 5427 5428 5429 5430 5431 5432 5433 5434 5435 5437 5438 5439 5440 5441 5442 5443 5444 5445 5445 5445 5445
5425 5425 5424 5424 5423 5423 5422 5421 5421 5420 5419 5419 5419 5418 5417 5417 5418 5419 5419 5420 5421 5422 5423 5424 5425 5426 5427 5429 5430 5431 5432 5433 5434 5436 5437 5438 5440 5440 5441 5442 5443 5443 5443
5419 5419 5418 5417 5417 5416 5415 5415 5414 5413 5413 5412 5412 5411 5411 5411 5412 5413 5414 5415 5416 5418 5419 5420 5421 5423 5424 5426 5427 5428 5429 5430 5432 5433 5435 5436 5437 5438 5439 5440 5440 5440 5440
5412 5412 5412 5411 5410 5410 5409 5408 5408 5408 5407 5407 5407 5406 5406 5406 5407 5408 5409 5411 5412 5414 5415 5417 5418 5420 5422 5423 5424 5426 5427 5429 5430 5431 5433 5434 5435 5436 5437 5437 5437 5437 5437
5406 5406 5406 5405 5405 5404 5403 5403 5403 5403 5403 5402 5402 5402 5402 5402 5403 5404 5405 5406 5408 5410 5412 5414 5416 5418 5419 5421 5422 5424 5425 5426 5428 5429 5431 5432 5433 5434 5434 5435 5435 5435 5435
5401 5401 5401 5400 5400 5400 5399 5399 5399 5398 5399 5399 5399 5399 5399 5400 5400 5401 5402 5404 5405 5407 5409 5412 5414 5416 5417 5419 5420 5422 5423 5425 5426 5428 5429 5430 5431 5432 5432 5433 5433 5433 5433
5396 5396 5396 5396 5396 5395 5395 5395 5395 5395 5395 5395 5396 5396 5397 5398 5398 5399 5401 5402 5404 5406 5408 5410 5412 5414 5416 5417 5419 5420 5422 5423 5425 5426 5428 5429 5429 5430 5431 5431 5432 5432 5432
Wind_Speed
46 47 47 48 48 49 50 52 53 53 53 54 54 54 54 53 53 53 53 53 53 52 52 51 51 51 50 51 50 49 48 48 48 46 46 47 47 47 46 47 48 48 49
45 47 48 48 48 49 50 51 51 51 52 52 53 52 51 51 50 50 50 50 50 49 49 48 48 48 47 47 47 46 46 46 46 45 45 45 45 45 44 44 45 45 45
45 46 46 46 47 48 49 49 50 50 50 50 50 50 49 49 48 47 47 47 46 45 45 45 44 44 44 44 44 45 45 45 44 44 42 42 42 42 42 42 43 42 41
44 44 44 45 46 46 47 47 48 48 48 48 48 47 47 47 46 45 45 44 43 42 42 42 41 40 40 41 43 43 43 43 43 42 40 39 39 38 37 37 37 38 38
42 41 42 43 44 45 45 46 46 47 47 46 45 44 44 44 45 43 43 42 41 40 40 40 39 38 38 39 40 40 40 40 40 38 37 36 35 35 34 33 33 34 34
40 41 42 42 43 44 44 44 45 45 44 43 43 43 42 43 42 42 41 39 39 39 39 38 37 36 36 37 37 37 37 37 36 36 35 34 33 32 31 31 32 33 33
40 40 41 41 42 42 42 43 43 42 42 41 41 40 40 39 40 40 39 38 37 37 37 36 35 35 35 35 35 35 34 34 34 34 32 32 31 31 30 31 31 32 31
39 40 40 40 41 40 41 40 40 39 39 39 39 39 39 39 38 38 37 37 36 35 34 34 34 34 34 34 34 33 33 33 33 32 30 30 29 29 29 29 30 30 30
38 39 38 39 39 38 38 38 37 37 37 37 37 38 38 37 36 35 35 35 34 33 32 32 32 32 32 31 31 31 31 31 31 31 30 30 30 29 29 29 28 27 27
36 37 37 37 37 37 37 36 36 36 36 35 35 35 34 33 33 33 34 33 31 30 29 29 29 29 29 29 28 28 27 27 28 28 29 29 28 28 27 27 26 26 26
35 36 36 36 36 36 36 36 35 34 33 33 33 32 31 31 31 31 30 29 28 28 28 27 27 27 27 27 26 26 26 26 26 27 28 28 27 27 25 25 25 25 25
34 35 35 35 34 34 35 34 33 33 32 31 31 30 30 29 29 29 28 29 28 27 26 26 25 25 25 25 25 24 25 25 26 26 26 26 26 25 24 24 24 23 23
35 34 34 33 33 33 32 32 32 31 30 30 29 29 29 29 29 28 28 28 28 27 26 25 25 25 25 25 25 24 24 23 23 23 23 23 24 23 23 23 22 22 22
32 32 32 32 31 31 31 30 29 29 28 28 27 28 28 28 27 27 27 26 25 25 24 24 24 24 24 24 24 23 22 21 21 21 21 21 21 21 21 21 21 21 21
30 30 30 30 30 29 29 28 27 27 27 27 27 27 27 27 26 26 25 25 24 24 24 23 23 23 22 22 22 21 20 19 19 19 19 19 18 18 18 19 19 19 20
28 28 28 27 28 28 27 27 26 26 26 26 26 26 26 25 25 25 25 24 24 24 23 23 22 21 21 20 19 19 18 17 17 17 17 16 16 16 17 17 18 18 18
26 26 26 26 26 26 26 26 26 26 26 26 26 26 25 25 24 24 24 24 23 22 21 21 20 19 18 17 17 17 17 17 17 17 17 17 16 16 16 16 16 16 16
25 25 24 24 24 24 24 25 25 25 25 25 25 25 25 24 23 23 22 22 21 20 19 18 18 17 16 15 15 16 16 17 17 16 16 15 15 14 14 14 14 13 13
22 22 22 22 22 22 23 23 22 23 23 23 23 24 23 23 22 22 21 20 19 18 18 17 16 15 15 15 15 15 16 16 16 16 15 14 13 12 12 12 11 11 11
20 20 20 20 20 20 21 21 21 21 22 21 21 22 22 21 21 20 19 18 17 16 16 15 15 15 14 14 14 15 15 15 15 14 13 13 11 11 10 10 10 10 11
20 20 20 20 20 20 20 20 20 21 21 21 20 20 19 19 18 17 16 16 15 15 15 14 13 13 13 13 13 13 13 13 13 13 12 11 10 10 10 10 10 10 10
19 20 20 20 20 19 19 19 19 18 18 17 17 17 17 16 15 15 14 14 14 14 13 12 12 12 12 11 11 11 11 12 12 12 12 11 10 10 10 10 10 10 10
18 18 18 18 17 17 17 17 16 15 15 14 14 14 13 13 13 13 13 13 14 13 12 12 11 11 11 11 10 10 10 11 11 11 11 10 10 9 9 9 9 9 9
16 15 15 15 14 14 14 14 14 13 12 12 11 11 11 10 10 10 11 12 12 12 12 11 11 11 11 10 10 9 10 11 11 10 9 9 9 9 8 8 8 7 7
14 14 14 14 13 12 12 12 12 11 11 10 9 9 9 9 8 8 9 9 10 11 11 11 11 10 10 9 9 9 10 10 10 9 8 8 8 8 7 7 6 6 5
13 12 12 12 11 11 11 10 11 10 10 9 8 8 8 7 7 8 8 8 9 9 10 11 10 10 9 8 8 9 9 9 9 8 8 8 7 6 6 5 4 4 4
Wind_Direction
267 267 267 268 269 270 272 273 274 274 275 276 276 276 276 276 277 279 277 276 276 277 277 277 277 277 275 273 272 271 271 271 270 268 268 270 271 271 271 270 270 269 269
267 268 269 269 270 271 273 274 274 275 276 277 277 277 276 276 278 279 278 277 276 276 277 277 277 276 274 272 271 270 270 270 270 269 268 269 271 271 271 269 268 268 269
268 270 270 270 271 273 274 275 275 276 278 278 277 277 275 276 277 278 278 277 276 276 277 277 277 275 273 272 270 270 269 269 270 270 269 269 270 271 271 269 268 268 269
270 271 270 271 273 274 275 276 277 277 278 277 276 276 275 274 276 278 277 276 276 276 277 277 276 275 274 272 271 270 269 269 269 268 268 268 268 271 270 269 269 269 269
270 270 271 272 274 275 276 277 278 279 278 277 276 275 275 275 276 277 277 276 275 276 276 275 275 275 274 274 272 271 270 269 267 267 267 267 267 268 268 270 271 271 270
269 270 271 273 275 276 277 277 278 278 277 277 276 275 274 275 276 277 277 276 276 275 274 273 274 274 274 273 272 270 269 267 266 265 266 266 265 267 269 272 272 271 271
270 270 272 274 275 277 277 278 277 276 276 276 276 276 276 276 276 275 275 276 277 275 273 273 274 274 274 272 271 269 267 266 264 264 263 264 264 267 270 272 272 272 272
270 270 271 274 275 276 276 276 276 275 275 275 275 275 275 276 276 274 275 276 275 274 273 273 273 274 274 272 270 267 266 266 265 263 263 264 264 265 267 271 270 270 271
270 270 271 273 274 274 274 274 275 275 275 276 276 276 275 274 273 274 276 276 275 273 273 273 273 273 273 272 269 266 264 263 263 263 264 265 264 264 265 268 269 269 272
269 269 271 272 273 272 272 272 273 273 274 275 275 276 274 273 273 273 275 275 273 273 274 275 274 272 271 269 267 266 264 263 263 261 262 263 263 263 264 267 269 271 273
268 269 271 272 272 272 271 272 272 272 272 273 275 274 273 273 273 274 275 274 274 274 274 275 274 272 271 269 267 267 264 263 263 260 260 261 261 262 263 266 269 271 271
269 270 271 272 272 272 271 272 272 272 272 273 273 272 272 273 273 273 273 274 275 275 273 273 272 273 271 269 268 267 265 263 262 260 259 260 260 261 262 265 267 268 270
269 269 270 271 271 271 270 271 272 272 272 271 270 271 271 272 273 273 273 274 274 274 272 271 272 273 272 269 267 266 264 262 260 259 257 258 261 263 262 263 265 268 273
268 268 269 270 270 270 270 271 272 271 270 270 270 272 272 272 273 272 272 272 271 271 272 272 273 273 271 269 265 263 261 261 259 258 258 260 262 261 261 261 265 269 273
268 269 270 269 269 271 272 271 270 270 271 272 273 273 273 272 272 272 272 271 270 271 273 274 272 270 268 264 261 260 259 258 257 259 259 258 258 260 262 264 266 269 272
267 268 269 269 270 270 270 270 269 270 271 273 274 274 273 273 272 270 271 270 271 273 274 273 271 266 263 259 257 255 255 254 252 253 254 255 258 261 263 263 264 266 268
267 267 268 270 270 269 269 269 269 270 271 273 274 274 274 272 270 268 268 270 270 271 270 268 265 263 260 254 251 250 250 249 249 250 252 254 258 259 260 261 263 265 268
266 266 268 269 270 270 270 271 270 269 269 271 272 272 272 270 268 267 268 267 267 268 266 262 259 258 254 250 249 249 249 247 247 249 251 254 258 258 257 258 261 264 268
264 265 266 268 269 270 271 270 269 269 269 270 270 271 272 270 268 267 267 266 266 264 259 255 254 252 248 246 247 248 247 246 247 248 248 249 251 253 252 254 260 265 271
263 265 266 268 270 270 270 269 269 270 271 272 272 272 270 269 267 265 264 262 260 256 252 250 250 248 245 243 245 246 245 245 245 244 244 244 246 248 249 254 262 268 274
264 266 267 269 271 270 269 269 270 271 271 272 274 273 270 266 264 262 259 255 250 247 247 247 245 243 241 241 243 243 240 239 239 239 239 238 241 243 249 258 266 271 273
265 267 268 271 271 269 269 270 271 271 271 272 273 272 269 264 261 257 253 247 243 241 241 240 238 235 235 235 237 236 233 231 232 234 234 237 241 247 253 259 264 268 273
267 268 269 271 271 271 270 269 268 268 269 270 271 270 267 261 256 253 245 237 235 235 236 236 231 228 228 228 227 228 228 228 230 234 234 238 242 247 253 258 263 270 275
266 267 268 269 271 273 269 266 265 264 265 266 267 267 264 257 252 246 236 229 228 227 227 224 221 219 216 221 224 226 227 227 228 231 231 236 239 245 251 257 261 267 274
262 264 266 266 268 270 267 264 262 259 259 261 262 261 256 248 240 232 223 217 214 212 210 208 206 207 211 218 222 222 220 220 220 221 222 228 234 240 245 251 255 264 273
257 260 261 262 264 266 264 260 255 251 251 254 251 242 237 230 222 214 207 201 197 196 197 199 202 205 208 212 214 212 211 210 209 213 219 224 228 231 233 237 245 255 266